TimeAST,TemperatureF,Dew PointF,Humidity,Sea Level PressureIn,VisibilityMPH,Wind Direction,Wind SpeedMPH,Gust SpeedMPH,PrecipitationIn,Events,Conditions,WindDirDegrees,DateUTC
12:00 AM,77.0,69.8,78,30.01,6.2,East,8.1,-,N/A,,Partly Cloudy,90,2014-02-13 04:00:00
1:00 AM,77.0,69.8,78,30.01,6.2,East,6.9,-,N/A,,Scattered Clouds,90,2014-02-13 05:00:00
2:00 AM,77,69,71,29.99,28,East,11.5,,,,Partly Cloudy,100,2014-02-13 06:00:00
2:00 AM,77.0,69.8,78,29.98,6.2,East,11.5,-,N/A,,Partly Cloudy,100,2014-02-13 06:00:00
3:00 AM,77.0,69.8,78,29.95,6.2,ESE,13.8,-,N/A,,Scattered Clouds,110,2014-02-13 07:00:00
4:00 AM,77.0,69.8,78,29.95,6.2,ESE,12.7,-,N/A,,Partly Cloudy,110,2014-02-13 08:00:00
5:00 AM,77,69,71,29.97,28,ESE,9.2,,,,Scattered Clouds,110,2014-02-13 09:00:00
5:00 AM,77.0,69.8,78,29.95,6.2,ESE,9.2,-,N/A,,Partly Cloudy,110,2014-02-13 09:00:00
6:00 AM,77.0,69.8,78,29.98,6.2,ESE,10.4,-,N/A,,Scattered Clouds,110,2014-02-13 10:00:00
7:00 AM,77.0,69.8,78,30.01,6.2,ESE,9.2,-,N/A,,Scattered Clouds,110,2014-02-13 11:00:00
8:00 AM,78,69,67,30.04,31,ESE,9.2,,,,Mostly Cloudy,110,2014-02-13 12:00:00
8:00 AM,78.8,69.8,74,30.04,6.2,ESE,9.2,-,N/A,,Mostly Cloudy,110,2014-02-13 12:00:00
9:00 AM,78.8,68.0,69,30.04,6.2,ESE,12.7,-,N/A,,Mostly Cloudy,120,2014-02-13 13:00:00
10:00 AM,80.6,68.0,65,30.06,6.2,SE,10.4,-,N/A,,Mostly Cloudy,130,2014-02-13 14:00:00
11:00 AM,80,,,30.07,19,SE,6.9,,,,Mostly Cloudy,130,2014-02-13 15:00:00
11:00 AM,80.6,71.6,74,30.06,6.2,SE,6.9,-,N/A,,Mostly Cloudy,130,2014-02-13 15:00:00
12:00 PM,82.4,69.8,66,30.04,6.2,East,15.0,-,N/A,,Mostly Cloudy,100,2014-02-13 16:00:00
1:00 PM,82.4,71.6,70,30.01,6.2,ESE,11.5,-,N/A,,Mostly Cloudy,110,2014-02-13 17:00:00
2:00 PM,81,70,62,30.00,28,SE,10.4,,,,Mostly Cloudy,140,2014-02-13 18:00:00
2:00 PM,80.6,69.8,70,29.98,6.2,ESE,10.4,-,N/A,,Mostly Cloudy,120,2014-02-13 18:00:00
4:00 PM,80.6,69.8,70,29.98,6.2,ESE,9.2,-,N/A,,Mostly Cloudy,110,2014-02-13 20:00:00
5:00 PM,80,70,65,29.99,31,ESE,9.2,,,,Mostly Cloudy,110,2014-02-13 21:00:00
5:00 PM,80.6,69.8,70,29.98,6.2,East,9.2,-,N/A,,Mostly Cloudy,100,2014-02-13 21:00:00
6:00 PM,78.8,69.8,74,29.98,6.2,East,10.4,-,N/A,,Mostly Cloudy,100,2014-02-13 22:00:00
7:00 PM,78.8,69.8,74,30.01,6.2,ESE,10.4,-,N/A,,Mostly Cloudy,110,2014-02-13 23:00:00
8:00 PM,78,70,71,30.03,25,ESE,8.1,,,,Partly Cloudy,110,2014-02-14 00:00:00
8:00 PM,78.8,69.8,74,30.01,6.2,ESE,9.2,-,N/A,,Partly Cloudy,110,2014-02-14 00:00:00
9:00 PM,78.8,69.8,74,30.04,6.2,East,11.5,-,N/A,,Partly Cloudy,100,2014-02-14 01:00:00
10:00 PM,78.8,69.8,74,30.04,6.2,ESE,12.7,-,N/A,,Partly Cloudy,120,2014-02-14 02:00:00
11:00 PM,78,70,70,30.05,25,SE,12.7,,,,Partly Cloudy,140,2014-02-14 03:00:00
11:00 PM,78.8,69.8,74,30.04,6.2,ESE,12.7,-,N/A,,Partly Cloudy,120,2014-02-14 03:00:00